Bellaire, MI

11:54 PM EDT on May 22, 2017 (GMT -0400)
Antrim County

Weather History for KACB - November, 2012

Change the Weather History Date:

Saturday, November 10, 2012

  Actual Average (KCVX) Record (KCVX)
Temperature  
Mean Temperature 49 °F -  
Max Temperature 54 °F 44 °F 61 °F (2016)
Min Temperature 44 °F 39 °F 29 °F (2014)
Degree Days  
Heating Degree Days 16    
Moisture  
Dew Point 42 °F    
Average Humidity 81    
Maximum Humidity 90    
Minimum Humidity 74    
Precipitation  
Precipitation 0.00 in - - ()
Sea Level Pressure  
Sea Level Pressure 30.01 in    
Wind  
Wind Speed 4 mph (ESE)    
Max Wind Speed 14 mph    
Max Gust Speed 17 mph    
Visibility 6 miles    
Events Rain    
Averages and records for this station are not official NWS values.
T = Trace of Precipitation, MM = Missing Value Source: NWS Daily Summary

Daily Weather History Graph

Daily Weather History Graph

Search for Another Location

Airport or City:

Trip Planner

Search our weather history database for the weather conditions in past years. The results will help you decide how hot, cold, wet, or windy it might be!

Date:

Astronomy

Nov. 10, 2012 Rise Set
Actual Time 7:32 AM EST 5:16 PM EST
Civil Twilight 7:00 AM EST 5:48 PM EST
Nautical Twilight 6:25 AM EST 6:23 PM EST
Astronomical Twilight 5:51 AM EST 6:57 PM EST
Moon 3:27 AM EST (11/10) 3:10 PM EST (11/10)
Length of Visible Light 10h 47m
Length of Day
9h 44m
Waning Crescent, 14% of the Moon is Illuminated
Nov 10
Waning Crescent
Nov 13
New
Nov 20
First Quarter
Nov 28
Full
Dec 6
Last Quarter

Hourly Weather History & Observations

Time (EST) Temp. Windchill Dew Point Humidity Pressure Visibility Wind Dir Wind Speed Gust Speed Precip Events Conditions
12:14 AM 45.0 °F 43.5 °F 37.6 °F 75% 30.13 in 10.0 mi NNE 3.5 mph - N/A   Overcast
12:35 AM 45.0 °F - 37.9 °F 76% 30.13 in 10.0 mi Calm Calm - N/A   Overcast
12:55 AM 45.0 °F - 38.3 °F 77% 30.13 in 10.0 mi Calm Calm - N/A   Overcast
1:15 AM 44.8 °F 43.3 °F 38.7 °F 79% 30.13 in 10.0 mi NNE 3.5 mph - N/A   Overcast
1:35 AM 44.8 °F 43.3 °F 38.8 °F 80% 30.12 in 10.0 mi NNE 3.5 mph - N/A   Overcast
1:55 AM 44.8 °F - 38.8 °F 80% 30.13 in 10.0 mi Calm Calm - N/A   Overcast
2:15 AM 44.6 °F - 39.2 °F 81% 30.13 in 10.0 mi Calm Calm - N/A   Overcast
2:35 AM 44.8 °F - 39.2 °F 81% 30.13 in 10.0 mi Calm Calm - N/A   Overcast
2:55 AM 44.8 °F - 39.2 °F 81% 30.13 in 10.0 mi Calm Calm - N/A   Overcast
3:15 AM 45.0 °F 43.5 °F 39.2 °F 80% 30.13 in 10.0 mi NNE 3.5 mph - N/A   Overcast
3:35 AM 45.0 °F - 39.2 °F 80% 30.12 in 10.0 mi Calm Calm - N/A   Overcast
3:54 AM 45.5 °F 44.2 °F 39.2 °F 79% 30.12 in 10.0 mi NNE 3.5 mph - N/A   Overcast
4:15 AM 45.5 °F - 39.2 °F 79% 30.12 in 7.0 mi Calm Calm - N/A   Overcast
4:35 AM 45.7 °F - 39.2 °F 78% 30.12 in 7.0 mi Calm Calm - N/A   Overcast
4:55 AM 45.9 °F - 38.8 °F 76% 30.11 in 7.0 mi Calm Calm - N/A   Overcast
5:15 AM 45.9 °F 44.6 °F 38.5 °F 75% 30.11 in 7.0 mi East 3.5 mph - N/A   Overcast
5:35 AM 45.9 °F - 38.1 °F 74% 30.10 in 7.0 mi Calm Calm - N/A   Overcast
5:55 AM 45.9 °F 42.3 °F 37.9 °F 74% 30.10 in 7.0 mi East 6.9 mph - N/A   Overcast
6:15 AM 45.9 °F 44.6 °F 37.9 °F 74% 30.11 in 7.0 mi East 3.5 mph - N/A   Overcast
6:35 AM 45.9 °F 42.9 °F 37.9 °F 74% 30.10 in 7.0 mi East 5.8 mph - N/A   Overcast
6:55 AM 45.7 °F 42.7 °F 38.3 °F 75% 30.10 in 7.0 mi East 5.8 mph - N/A   Overcast
7:35 AM 45.9 °F 40.4 °F 38.8 °F 76% 30.08 in 5.0 mi ESE 11.5 mph 16.1 mph N/A   Haze
7:55 AM 46.0 °F 43.1 °F 39.2 °F 77% 30.10 in 4.0 mi East 5.8 mph - N/A   Haze
8:15 AM 46.0 °F 41.9 °F 39.4 °F 78% 30.10 in 4.0 mi ESE 8.1 mph - N/A   Haze
8:34 AM 45.5 °F - 40.3 °F 82% 30.12 in 2.5 mi Calm Calm - N/A Rain Light Rain
8:55 AM 45.0 °F 42.6 °F 41.0 °F 86% 30.11 in 2.5 mi East 4.6 mph - N/A Rain Light Rain
9:15 AM 44.8 °F 39.9 °F 41.2 °F 87% 30.08 in 1.8 mi East 9.2 mph - N/A Rain Light Rain
9:35 AM 45.0 °F 42.6 °F 41.5 °F 88% 30.11 in 1.5 mi ENE 4.6 mph - N/A Rain Light Rain
9:55 AM 44.8 °F 41.6 °F 41.9 °F 90% 30.10 in 1.2 mi East 5.8 mph - N/A Rain Light Rain
10:15 AM 44.8 °F 41.0 °F 41.9 °F 90% 30.09 in 2.5 mi East 6.9 mph - N/A Rain Light Rain
10:35 AM 45.0 °F - 41.7 °F 88% 30.08 in 3.0 mi Calm Calm - N/A   Overcast
10:55 AM 45.5 °F 44.2 °F 41.5 °F 86% 30.08 in 3.0 mi East 3.5 mph - N/A   Overcast
11:15 AM 45.7 °F 42.7 °F 41.9 °F 87% 30.08 in 3.0 mi East 5.8 mph - N/A   Overcast
11:35 AM 45.9 °F 43.6 °F 41.9 °F 86% 30.05 in 3.0 mi East 4.6 mph - N/A   Overcast
11:55 AM 46.2 °F 44.1 °F 41.9 °F 85% 30.05 in 3.0 mi East 4.6 mph - N/A   Overcast
12:15 PM 46.4 °F 44.3 °F 41.9 °F 84% 30.04 in 3.0 mi East 4.6 mph - N/A   Overcast
12:35 PM 46.4 °F 43.5 °F 41.9 °F 84% 30.03 in 3.0 mi ESE 5.8 mph - N/A   Overcast
12:55 PM 46.4 °F 44.3 °F 42.4 °F 86% 30.01 in 2.5 mi East 4.6 mph - N/A   Overcast
1:16 PM 46.6 °F - 43.0 °F 87% 29.98 in 2.5 mi ENE 4.6 mph - N/A   Overcast
1:35 PM 47.1 °F - 43.2 °F 86% 29.97 in 3.0 mi Calm Calm - N/A   Overcast
1:55 PM 47.5 °F - 43.5 °F 86% 29.97 in 4.0 mi East 5.8 mph - N/A   Overcast
2:15 PM 48.0 °F - 43.3 °F 84% 29.97 in 4.0 mi East 4.6 mph - N/A   Haze
2:35 PM 48.2 °F - 43.7 °F 84% 29.95 in 4.0 mi East 6.9 mph - N/A   Overcast
2:55 PM 48.7 °F - 43.9 °F 83% 29.95 in 4.0 mi ESE 8.1 mph - N/A   Haze
3:15 PM 49.1 °F - 43.9 °F 82% 29.94 in 4.0 mi ESE 4.6 mph - N/A   Haze
3:35 PM 49.1 °F - 43.9 °F 82% 29.93 in 4.0 mi ESE 3.5 mph - N/A   Haze
3:55 PM 49.1 °F - 43.9 °F 82% 29.93 in 4.0 mi East 6.9 mph - N/A   Haze
4:15 PM 49.5 °F - 44.1 °F 82% 29.92 in 4.0 mi East 3.5 mph - N/A   Haze
4:35 PM 49.6 °F - 44.2 °F 82% 29.92 in 4.0 mi ESE 6.9 mph - N/A   Haze
4:56 PM 50.0 °F - 44.2 °F 81% 29.91 in 4.0 mi East 5.8 mph - N/A   Haze
5:15 PM 49.5 °F - 44.2 °F 82% 29.91 in 3.0 mi ESE 3.5 mph - N/A Rain Light Rain
5:35 PM 50.0 °F - 44.2 °F 81% 29.91 in 4.0 mi SSE 6.9 mph - N/A   Haze
5:55 PM 50.0 °F - 44.6 °F 82% 29.91 in 4.0 mi SE 5.8 mph - N/A   Overcast
6:15 PM 50.0 °F - 44.6 °F 82% 29.92 in 4.0 mi SE 3.5 mph - N/A   Mostly Cloudy
6:36 PM 50.0 °F - 44.8 °F 82% 29.91 in 5.0 mi SE 6.9 mph - N/A   Haze
6:55 PM 50.0 °F - 44.6 °F 82% 29.91 in 5.0 mi Calm Calm - N/A   Haze
7:15 PM 50.2 °F - 44.6 °F 81% 29.91 in 5.0 mi South 3.5 mph - N/A   Haze
7:36 PM 50.0 °F - 44.6 °F 82% 29.91 in 5.0 mi SSE 5.8 mph - N/A   Haze
7:55 PM 49.6 °F - 44.6 °F 83% 29.91 in 5.0 mi SSW 3.5 mph - N/A   Haze
8:15 PM 50.7 °F - 44.8 °F 80% 29.92 in 7.0 mi South 4.6 mph - N/A   Clear
8:36 PM 51.4 °F - 45.5 °F 80% 29.90 in 7.0 mi South 8.1 mph - N/A   Clear
8:55 PM 52.3 °F - 45.5 °F 78% 29.89 in 7.0 mi SSE 5.8 mph - N/A   Scattered Clouds
9:15 PM 53.6 °F - 45.9 °F 75% 29.88 in 7.0 mi SSE 10.4 mph 16.1 mph N/A   Clear
9:35 PM 54.0 °F - 46.0 °F 75% 29.87 in 10.0 mi SSE 13.8 mph 17.3 mph N/A   Clear
9:55 PM 53.8 °F - 46.0 °F 75% 29.87 in 10.0 mi South 5.8 mph - N/A   Clear
10:16 PM 53.4 °F - 46.0 °F 76% 29.86 in 10.0 mi South 4.6 mph - N/A   Clear
10:35 PM 53.2 °F - 46.4 °F 78% 29.85 in 10.0 mi South 5.8 mph - N/A   Clear
10:55 PM 54.1 °F - 46.6 °F 76% 29.85 in 10.0 mi SSW 6.9 mph - N/A   Clear
11:15 PM 53.8 °F - 46.6 °F 77% 29.85 in 10.0 mi South 4.6 mph - N/A   Clear
11:35 PM 54.0 °F - 46.4 °F 76% 29.85 in 10.0 mi South 5.8 mph - N/A   Clear
11:55 PM 52.7 °F - 46.4 °F 79% 29.85 in 10.0 mi South 3.5 mph - N/A   Clear